Retour au catalogue

FENGYUN 1C DEB

LostPO
NORAD 46441·DEBRIS·🇨🇳 China

Lancé May 10, 1999 depuis Taiyuan Satellite Launch Center

Loading…

Prochains Passages (prochaines 24 heures)

TLE

PériméSource: Space-Track

Époque: Jun 13, 2026, 12:06 UTC

1 46441U 99025EYW 26164.50421421  .00009333  00000-0  54206-2 0  9999
2 46441  95.2572  90.6006 0305878 291.1372  65.7358 13.87895503311972

Suivez FENGYUN 1C DEB en temps réel avec AllMySat

Download on the App Store